TimeEDT,TemperatureF,Dew PointF,Humidity,Sea Level PressureIn,VisibilityMPH,Wind Direction,Wind SpeedMPH,Gust SpeedMPH,PrecipitationIn,Events,Conditions,WindDirDegrees,DateUTC
12:51 AM,64.0,50.0,60,30.03,10.0,SSE,5.8,-,N/A,,Clear,150,2012-10-26 04:51:00
1:51 AM,62.1,50.0,65,30.04,10.0,SSE,3.5,-,N/A,,Clear,150,2012-10-26 05:51:00
2:51 AM,60.1,50.0,69,30.04,10.0,SE,3.5,-,N/A,,Clear,140,2012-10-26 06:51:00
3:51 AM,59.0,48.9,69,30.04,10.0,SE,5.8,-,N/A,,Clear,140,2012-10-26 07:51:00
4:51 AM,59.0,48.9,69,30.05,10.0,SSE,5.8,-,N/A,,Partly Cloudy,150,2012-10-26 08:51:00
5:51 AM,57.0,48.0,72,30.06,10.0,SE,4.6,-,N/A,,Scattered Clouds,140,2012-10-26 09:51:00
6:51 AM,55.9,48.0,75,30.08,10.0,SE,3.5,-,N/A,,Scattered Clouds,130,2012-10-26 10:51:00
7:51 AM,55.0,48.9,80,30.09,10.0,SE,4.6,-,N/A,,Scattered Clouds,140,2012-10-26 11:51:00
8:51 AM,57.9,50.0,75,30.10,10.0,SE,4.6,-,N/A,,Scattered Clouds,140,2012-10-26 12:51:00
9:51 AM,62.1,50.0,65,30.10,10.0,SSE,4.6,-,N/A,,Scattered Clouds,160,2012-10-26 13:51:00
10:51 AM,68.0,51.1,55,30.10,10.0,SSW,6.9,-,N/A,,Scattered Clouds,200,2012-10-26 14:51:00
11:51 AM,72.0,52.0,49,30.09,10.0,Variable,6.9,-,N/A,,Partly Cloudy,0,2012-10-26 15:51:00
12:51 PM,73.0,53.1,49,30.07,10.0,SSE,6.9,-,N/A,,Scattered Clouds,150,2012-10-26 16:51:00
1:51 PM,73.9,52.0,46,30.05,10.0,SSW,9.2,-,N/A,,Mostly Cloudy,210,2012-10-26 17:51:00
2:51 PM,73.9,53.1,48,30.03,10.0,Variable,4.6,-,N/A,,Mostly Cloudy,0,2012-10-26 18:51:00
3:51 PM,73.4,51.8,47,30.01,10.0,WNW,5.8,-,N/A,,Mostly Cloudy,290,2012-10-26 19:51:00
4:51 PM,69.1,53.1,57,30.01,10.0,North,12.7,-,N/A,,Mostly Cloudy,360,2012-10-26 20:51:00
5:51 PM,66.0,52.0,60,30.03,10.0,North,13.8,-,N/A,,Mostly Cloudy,350,2012-10-26 21:51:00
6:51 PM,57.9,50.0,75,30.08,10.0,NNW,16.1,-,N/A,,Mostly Cloudy,330,2012-10-26 22:51:00
7:26 PM,55.4,48.2,77,30.07,10.0,NNW,17.3,-,N/A,,Overcast,340,2012-10-26 23:26:00
7:51 PM,55.0,48.9,80,30.10,10.0,NNW,17.3,23.0,N/A,,Overcast,340,2012-10-26 23:51:00
8:51 PM,54.0,48.0,80,30.12,10.0,NNE,11.5,19.6,N/A,,Overcast,20,2012-10-27 00:51:00
9:51 PM,54.0,48.0,80,30.10,10.0,North,9.2,-,N/A,,Overcast,360,2012-10-27 01:51:00
10:51 PM,54.0,48.0,80,30.07,10.0,NNE,9.2,-,N/A,,Overcast,20,2012-10-27 02:51:00
11:51 PM,54.0,48.0,80,30.06,10.0,North,10.4,-,N/A,,Overcast,360,2012-10-27 03:51:00